Location: Eekst
(53.0191°N, 6.7366°E)
Time: 20:26:46
(UTC+00:00)

Cosmos 1076 Rocket - Pass Details

Date: 15 May 2026
Orbit: 580 x 604 km, 82.5° (Epoch: 8 June)

Event Time Altitude Azimuth Distance (km) Brightness Sun altitude
Rises 20:50:50 0° 352° (N) 2,844 8.1 -10.2°
Reaches altitude 10° 20:53:08 10° 359° (N) 1,933 7.0 -10.4°
Maximum altitude 20:57:14 45° 73° (ENE) 813 4.0 -10.8°
Enters shadow 21:00:21 16° 142° (SE) 1,553 4.9 -11.1°
